When you browse on this site, cookies collect data to enhance your experience and personalize the content and advertising you see.
Visit our Privacy Policy to learn more. By continuing to use the site, you agree to this use of cookies and data.

Stündliche Wetter Bolshie Lipovichi

Heute, 27 September, Sonntag

Zeit Temperatur Niederschläge Wind Luftdruck Luftfeuchtigkeit
00:00 +15°C° 0 mm 6 m/S 742 mmHg 62%
01:00 +15°C° 0 mm 6 m/S 742 mmHg 61%
02:00 +15°C° 0 mm 6 m/S 743 mmHg 59%
03:00 +14°C° 0 mm 6 m/S 742 mmHg 58%
04:00 +14°C° 0 mm 6 m/S 742 mmHg 58%
05:00 +13°C° 0 mm 6 m/S 742 mmHg 57%
06:00 +14°C° 0 mm 6 m/S 743 mmHg 59%
07:00 +14°C° 0 mm 6 m/S 743 mmHg 61%
08:00 +14°C° 0 mm 7 m/S 743 mmHg 62%
09:00 +15°C° 0 mm 7 m/S 743 mmHg 60%
10:00 +17°C° 0 mm 8 m/S 743 mmHg 58%
11:00 +18°C° 0 mm 8 m/S 743 mmHg 55%
12:00 +18°C° 0 mm 8 m/S 743 mmHg 56%
13:00 +20°C° 0 mm 8 m/S 743 mmHg 56%
14:00 +20°C° 0 mm 8 m/S 743 mmHg 56%
15:00 +18°C° 0.1 mm 8 m/S 743 mmHg 59%
16:00 +17°C° 0.1 mm 7 m/S 743 mmHg 63%
17:00 +16°C° 0.1 mm 6 m/S 743 mmHg 66%
18:00 +15°C° 0.5 mm 6 m/S 743 mmHg 71%
19:00 +14°C° 0.5 mm 6 m/S 743 mmHg 77%
20:00 +14°C° 0.5 mm 6 m/S 743 mmHg 82%
21:00 +13°C° 0.5 mm 6 m/S 743 mmHg 85%
22:00 +13°C° 0.5 mm 6 m/S 743 mmHg 87%
23:00 +11°C° 0.5 mm 6 m/S 743 mmHg 90%

Morgen, 28 September, Montag

Zeit Temperatur Niederschläge Wind Luftdruck Luftfeuchtigkeit
00:00 +13°C° 0.2 mm 5 m/S 743 mmHg 91%
01:00 +13°C° 0.2 mm 5 m/S 743 mmHg 92%
02:00 +13°C° 0.2 mm 4 m/S 744 mmHg 93%
03:00 +13°C° 0.6 mm 4 m/S 744 mmHg 93%
04:00 +13°C° 0.6 mm 4 m/S 744 mmHg 93%
05:00 +12°C° 0.6 mm 4 m/S 744 mmHg 93%
06:00 +12°C° 0.4 mm 4 m/S 745 mmHg 91%
07:00 +10°C° 0.4 mm 5 m/S 745 mmHg 89%
08:00 +10°C° 0.4 mm 5 m/S 746 mmHg 87%
09:00 +10°C° 0 mm 5 m/S 746 mmHg 84%
10:00 +12°C° 0 mm 5 m/S 747 mmHg 80%
11:00 +13°C° 0 mm 5 m/S 748 mmHg 77%
12:00 +14°C° 0 mm 5 m/S 748 mmHg 72%
13:00 +14°C° 0 mm 5 m/S 748 mmHg 68%
14:00 +15°C° 0 mm 4 m/S 749 mmHg 63%
15:00 +15°C° 0 mm 4 m/S 749 mmHg 67%
16:00 +14°C° 0 mm 3 m/S 749 mmHg 70%
17:00 +15°C° 0 mm 2 m/S 749 mmHg 74%
18:00 +14°C° 0 mm 2 m/S 749 mmHg 76%
19:00 +12°C° 0 mm 3 m/S 749 mmHg 79%
20:00 +11°C° 0 mm 3 m/S 749 mmHg 82%
21:00 +11°C° 0 mm 3 m/S 750 mmHg 83%
22:00 +11°C° 0 mm 3 m/S 750 mmHg 84%
23:00 +10°C° 0 mm 2 m/S 750 mmHg 84%

übermorgen, 29 September, Dienstag

Zeit Temperatur Niederschläge Wind Luftdruck Luftfeuchtigkeit
00:00 +10°C° 0 mm 2 m/S 749 mmHg 85%
01:00 +10°C° 0 mm 2 m/S 749 mmHg 85%
02:00 +10°C° 0 mm 2 m/S 749 mmHg 86%
03:00 +9°C° 0 mm 2 m/S 749 mmHg 86%
04:00 +9°C° 0 mm 2 m/S 749 mmHg 87%
05:00 +9°C° 0 mm 2 m/S 749 mmHg 88%
06:00 +10°C° 0 mm 2 m/S 749 mmHg 85%
07:00 +12°C° 0 mm 2 m/S 749 mmHg 82%
08:00 +13°C° 0 mm 2 m/S 749 mmHg 79%
09:00 +14°C° 0 mm 2 m/S 748 mmHg 74%
10:00 +16°C° 0 mm 3 m/S 748 mmHg 69%
11:00 +17°C° 0 mm 3 m/S 748 mmHg 65%
12:00 +18°C° 0 mm 3 m/S 748 mmHg 65%
13:00 +19°C° 0 mm 3 m/S 748 mmHg 65%
14:00 +19°C° 0 mm 4 m/S 748 mmHg 65%
15:00 +18°C° 0 mm 3 m/S 747 mmHg 71%
16:00 +18°C° 0 mm 3 m/S 747 mmHg 76%
17:00 +17°C° 0 mm 3 m/S 747 mmHg 82%
18:00 +16°C° 0 mm 3 m/S 746 mmHg 83%
19:00 +13°C° 0 mm 3 m/S 746 mmHg 85%
20:00 +12°C° 0 mm 3 m/S 746 mmHg 87%
21:00 +12°C° 0 mm 3 m/S 746 mmHg 83%
22:00 +12°C° 0 mm 3 m/S 746 mmHg 79%
23:00 +12°C° 0 mm 3 m/S 746 mmHg 75%

30 September, Mittwoch

Zeit Temperatur Niederschläge Wind Luftdruck Luftfeuchtigkeit
00:00 +12°C° 0 mm 3 m/S 746 mmHg 74%
01:00 +11°C° 0 mm 4 m/S 745 mmHg 73%
02:00 +11°C° 0 mm 4 m/S 745 mmHg 72%
03:00 +10°C° 0 mm 4 m/S 745 mmHg 71%
04:00 +10°C° 0 mm 4 m/S 745 mmHg 71%
05:00 +10°C° 0 mm 4 m/S 745 mmHg 70%
06:00 +10°C° 0 mm 4 m/S 745 mmHg 69%
07:00 +10°C° 0 mm 5 m/S 745 mmHg 68%
08:00 +10°C° 0 mm 5 m/S 745 mmHg 67%
09:00 +12°C° 0 mm 5 m/S 745 mmHg 65%
10:00 +13°C° 0 mm 5 m/S 745 mmHg 63%
11:00 +14°C° 0 mm 5 m/S 745 mmHg 62%
12:00 +14°C° 0 mm 5 m/S 744 mmHg 62%
13:00 +15°C° 0 mm 5 m/S 744 mmHg 62%
14:00 +15°C° 0 mm 5 m/S 744 mmHg 62%
15:00 +15°C° 0 mm 5 m/S 744 mmHg 63%
16:00 +14°C° 0 mm 4 m/S 744 mmHg 64%
17:00 +14°C° 0 mm 4 m/S 744 mmHg 65%
18:00 +13°C° 0 mm 4 m/S 744 mmHg 63%
19:00 +13°C° 0 mm 4 m/S 744 mmHg 62%
20:00 +12°C° 0 mm 5 m/S 744 mmHg 61%
21:00 +12°C° 0 mm 5 m/S 744 mmHg 59%
22:00 +12°C° 0 mm 5 m/S 744 mmHg 58%
23:00 +10°C° 0 mm 5 m/S 744 mmHg 57%

1 Oktober, Donnerstag

Zeit Temperatur Niederschläge Wind Luftdruck Luftfeuchtigkeit
00:00 +10°C° 0 mm 5 m/S 744 mmHg 58%
01:00 +9°C° 0 mm 5 m/S 744 mmHg 58%
02:00 +8°C° 0 mm 5 m/S 743 mmHg 59%
03:00 +8°C° 0 mm 5 m/S 744 mmHg 59%
04:00 +8°C° 0 mm 5 m/S 744 mmHg 60%
05:00 +8°C° 0 mm 5 m/S 744 mmHg 60%
06:00 +8°C° 0 mm 5 m/S 744 mmHg 60%
07:00 +9°C° 0 mm 6 m/S 743 mmHg 60%
08:00 +9°C° 0 mm 6 m/S 743 mmHg 60%
09:00 +11°C° 0 mm 7 m/S 743 mmHg 58%
10:00 +12°C° 0 mm 7 m/S 743 mmHg 57%
11:00 +14°C° 0 mm 7 m/S 743 mmHg 55%
12:00 +14°C° 0 mm 7 m/S 743 mmHg 57%
13:00 +15°C° 0 mm 7 m/S 743 mmHg 59%
14:00 +15°C° 0 mm 7 m/S 743 mmHg 61%
15:00 +14°C° 0 mm 6 m/S 744 mmHg 64%
16:00 +14°C° 0 mm 6 m/S 744 mmHg 67%
17:00 +14°C° 0 mm 6 m/S 744 mmHg 69%
18:00 +13°C° 0 mm 6 m/S 744 mmHg 70%
19:00 +13°C° 0 mm 6 m/S 744 mmHg 70%
20:00 +11°C° 0 mm 6 m/S 744 mmHg 71%
21:00 +11°C° 0 mm 6 m/S 745 mmHg 71%
22:00 +10°C° 0 mm 5 m/S 745 mmHg 72%
23:00 +10°C° 0 mm 5 m/S 745 mmHg 72%

2 Oktober, Freitag

Zeit Temperatur Niederschläge Wind Luftdruck Luftfeuchtigkeit
00:00 +10°C° 0 mm 5 m/S 745 mmHg 70%
01:00 +11°C° 0 mm 4 m/S 745 mmHg 68%
02:00 +11°C° 0 mm 4 m/S 745 mmHg 66%
03:00 +11°C° 0 mm 4 m/S 745 mmHg 63%
04:00 +10°C° 0 mm 5 m/S 745 mmHg 60%
05:00 +12°C° 0 mm 5 m/S 745 mmHg 57%
06:00 +12°C° 0 mm 5 m/S 745 mmHg 57%
07:00 +12°C° 0 mm 5 m/S 745 mmHg 57%
08:00 +11°C° 0 mm 6 m/S 745 mmHg 57%
09:00 +11°C° 0 mm 6 m/S 745 mmHg 57%
10:00 +13°C° 0 mm 6 m/S 746 mmHg 57%
11:00 +14°C° 0 mm 7 m/S 746 mmHg 57%
12:00 +14°C° 0 mm 7 m/S 746 mmHg 57%
13:00 +14°C° 0 mm 7 m/S 746 mmHg 56%
14:00 +15°C° 0 mm 7 m/S 746 mmHg 56%
15:00 +14°C° 0 mm 6 m/S 746 mmHg 58%
16:00 +13°C° 0 mm 6 m/S 746 mmHg 61%
17:00 +13°C° 0 mm 5 m/S 746 mmHg 64%
18:00 +11°C° 0 mm 6 m/S 747 mmHg 68%
19:00 +11°C° 0 mm 6 m/S 747 mmHg 73%
20:00 +10°C° 0 mm 6 m/S 747 mmHg 77%
21:00 +10°C° 0 mm 6 m/S 747 mmHg 77%
22:00 +10°C° 0 mm 5 m/S 747 mmHg 76%
23:00 +10°C° 0 mm 5 m/S 747 mmHg 75%
Mehr zeigen